Strona główna
METAR-TAF:

METAR-TAF

Lotnisko :

Weipa, Australia

Szerokość geograficzna: 12-40-43S, Długość geograficzna: 141-55-31E, wysokość: 19 m

Aktualna obserwacja pogody

Raport powstał 1 godzina i 6 minut temu, godzina 15:00 UTC
Wiatr 5 kt od północ
Temperatura 28°C
Wilgotność 84%
Ciśnienie 1008 hPa
Widzialność 10 km lub więcej

METAR: YBWP 261500Z AUTO 35005KT 9999 // NCD 28/25 Q1008

czas: 02:06 (16:06 UTC)


TAF: brakujący

Obserwacja i prognoza pogody dla ponad 4000 lotnisk (raport METAR i TAF).

Dostępne stacje oznaczono żółtymi i czerwonymi punktami na mapie.

Najedź kursorem aby zobaczyć nazwę stacji.

Kliknij aby zobaczyć obserwacje i prognozy pogody.

Aby zmienić mapę: kliknij na zielony przycisk z czarnym krzyżykiem, aby powiększyć; na zielony przycisk z myślnikiem, aby pomniejszyć; na zielone strzałki, aby przejść do map sąsiednich.


METAR-TAF: